Broomfield, CO

12:32 AM MDT on September 20, 2019 (GMT -0600)
Jeffco

Weather History for KBJC - August, 2019

Change the Weather History Date:

Friday, August 23, 2019

  Actual Average Record
Temperature  
Mean Temperature 74 °F -  
Max Temperature 87 °F 83 °F 95 °F (2011)
Min Temperature 62 °F 58 °F 50 °F (2015)
Cooling Degree Days 10    
Growing Degree Days 24 (Base 50)    
Moisture  
Dew Point 44 °F    
Average Humidity 41    
Maximum Humidity 59    
Minimum Humidity 12    
Precipitation  
Precipitation 0.00 in - - ()
Sea Level Pressure  
Sea Level Pressure 30.04 in    
Wind  
Wind Speed 6 mph (SW)    
Max Wind Speed 13 mph    
Max Gust Speed 17 mph    
Visibility 12 miles    
Events      
Averages and records for this station are not official NWS values.
T = Trace of Precipitation, MM = Missing Value Source: NWS Daily Summary

Daily Weather History Graph

Daily Weather History Graph

Search for Another Location

Airport or City:

Astronomy

Aug. 23, 2019 Rise Set
Actual Time 6:19 AM MDT 7:45 PM MDT
Civil Twilight 5:51 AM MDT 8:14 PM MDT
Nautical Twilight 5:17 AM MDT 8:48 PM MDT
Astronomical Twilight 4:41 AM MDT 9:23 PM MDT
Moon No Moon Rise 1:58 PM MDT (8/23)
Length of Visible Light 14h 22m
Length of Day
13h 26m
Waning Gibbous, 49% of the Moon is Illuminated
Aug 23
Waning Gibbous
Aug 30
New
Sep 5
First Quarter
Sep 13
Full
Sep 21
Last Quarter

Hourly Weather History & Observations

Time (MDT) Temp. Dew Point Humidity Pressure Visibility Wind Dir Wind Speed Gust Speed Precip Events Conditions
12:12 AM 64.4 °F 50.0 °F 59% 30.07 in 10.0 mi WSW 6.9 mph - N/A   Clear
12:29 AM 64.4 °F 50.0 °F 59% 30.06 in 10.0 mi SW 6.9 mph - N/A   Clear
12:52 AM 66.2 °F 46.4 °F 49% 30.05 in 10.0 mi SW 8.1 mph - N/A   Clear
1:12 AM 66.2 °F 46.4 °F 49% 30.03 in 10.0 mi WSW 9.2 mph - N/A   Clear
1:48 AM 64.4 °F 44.6 °F 49% 30.01 in 10.0 mi West 6.9 mph - N/A   Clear
2:12 AM 62.6 °F 46.4 °F 55% 30.01 in 10.0 mi WSW 6.9 mph - N/A   Clear
2:30 AM 64.4 °F 44.6 °F 49% 30.00 in 10.0 mi Calm Calm - N/A   Clear
2:54 AM 68.0 °F 44.6 °F 43% 30.00 in 10.0 mi South 3.5 mph - N/A   Clear
3:12 AM 66.2 °F 46.4 °F 49% 30.00 in 10.0 mi Calm Calm - N/A   Clear
3:30 AM 66.2 °F 46.4 °F 49% 30.00 in 10.0 mi South 4.6 mph - N/A   Clear
3:54 AM 64.4 °F 46.4 °F 52% 30.00 in 10.0 mi South 6.9 mph - N/A   Clear
4:12 AM 66.2 °F 44.6 °F 46% 30.00 in 10.0 mi South 3.5 mph - N/A   Clear
4:30 AM 66.2 °F 44.6 °F 46% 30.00 in 10.0 mi South 4.6 mph - N/A   Clear
4:54 AM 66.2 °F 44.6 °F 46% 30.00 in 10.0 mi WSW 5.8 mph - N/A   Clear
5:12 AM 66.2 °F 44.6 °F 46% 30.00 in 10.0 mi WSW 4.6 mph - N/A   Clear
5:30 AM 64.4 °F 42.8 °F 45% 30.01 in 10.0 mi WSW 3.5 mph - N/A   Clear
5:50 AM 66.2 °F 42.8 °F 43% 30.01 in 15.0 mi West 8.1 mph - N/A   Mostly Cloudy
5:54 AM 64.4 °F 44.6 °F 49% 30.02 in 10.0 mi West 6.9 mph - N/A   Clear
6:48 AM 68.0 °F 37.4 °F 33% 30.02 in 15.0 mi SW 4.6 mph - N/A   Mostly Cloudy
7:45 AM 68.0 °F 42.8 °F 40% 30.02 in 30.0 mi NW 8.1 mph - N/A   Mostly Cloudy
8:45 AM 69.8 °F 46.4 °F 43% 30.04 in 30.0 mi North 5.8 mph - N/A   Mostly Cloudy
9:45 AM 71.6 °F 48.2 °F 43% 30.05 in 40.0 mi North 8.1 mph - N/A   Mostly Cloudy
10:45 AM 77.0 °F 46.4 °F 34% 30.05 in 20.0 mi North 5.8 mph - N/A   Mostly Cloudy
11:45 AM 77.0 °F 50.0 °F 39% 30.05 in 20.0 mi North 5.8 mph - N/A   Mostly Cloudy
1:30 PM 80.6 °F 50.0 °F 34% 30.06 in 20.0 mi North 12.7 mph - N/A   Mostly Cloudy
1:55 PM 82.4 °F 50.0 °F 32% 30.06 in 20.0 mi North 12.7 mph - N/A   Mostly Cloudy
2:48 PM 84.2 °F 39.2 °F 20% 30.04 in 10.0 mi NNW 3.5 mph - N/A   Mostly Cloudy
3:45 PM 87.8 °F 28.4 °F 12% 30.03 in 10.0 mi Calm Calm - N/A   Mostly Cloudy
3:55 PM 86.0 °F 32.0 °F 14% 30.03 in 10.0 mi East 5.8 mph - N/A   Mostly Cloudy
5:45 PM 82.4 °F 37.4 °F 20% 30.01 in 10.0 mi ESE 12.7 mph - N/A   Scattered Clouds
9:45 PM 73.4 °F 42.8 °F 33% 30.08 in 10.0 mi Calm Calm - N/A   Mostly Cloudy
10:12 PM 69.8 °F 42.8 °F 38% 30.08 in 10.0 mi SE 5.8 mph - N/A   Clear
10:30 PM 68.0 °F 42.8 °F 40% 30.08 in 10.0 mi ESE 5.8 mph - N/A   Clear
10:54 PM 69.8 °F 42.8 °F 38% 30.08 in 10.0 mi South 3.5 mph - N/A   Clear
11:12 PM 68.0 °F 42.8 °F 40% 30.08 in 10.0 mi South 4.6 mph - N/A   Clear
11:30 PM 69.8 °F 41.0 °F 35% 30.09 in 10.0 mi South 8.1 mph - N/A   Clear
11:54 PM 68.0 °F 42.8 °F 40% 30.09 in 10.0 mi South 11.5 mph 17.3 mph N/A   Clear